User: anonymous
Location: Sandbanks Provincial Park
(47.6073°N, 57.6428°W)
Time: 23:48:25
(UTC-02:-30)
Language:

Cosmos 2034 Rocket - Orbit

View from above orbital plane
View from above orbital plane
View from above satellite
View from above satellite

Ground track
Ground track

The orbit data is extracted from the following two-line orbital elements,

1 20150U 89059B   14245.13694279  .00000049  00000-0  35229-4 0   209
2 20150 082.9400 130.0803 0027752 246.7051 267.6988 13.75584068260287
Epoch (UTC): 02 September 2014 03:17:11
Eccentricity: 0.0027752
inclination: 82.9400°
perigee height: 959 km
apogee height: 1000 km
right ascension of ascending node: 130.0803°
argument of perigee: 246.7051°
revolutions per day: 13.75584068
mean anomaly at epoch: 267.6988°
orbit number at epoch: 26028

The dashed part of the orbit path shows where the satellite is in the earth's shadow,  

DLR